METEOR 2-5 DEB, 38280

Orbit data source: Space-Track

METEOR 2-5 DEB, 38280 is space debris in LEO originally from a launch on Wed, 31 Oct 1979 UTC launched from the Plesetsk Missile And Space Complex (PKMTR). Debris objects in space refer to the collection of defunct objects orbiting the Earth. Examples of debris include non-operational satellites, rocket bodies, and fragments generated from explosions, collisions, or faulty payload assembly.

Loading next visibility...
Identifier
38280, 1979-095CA
Orbit
LEO
Country
Flag of CISCIS
Related business
Manufacturer
Unknown
Mission
Spacecraft
Bus & Motor
Unknown
Mass
Unknown
Launch date (UTC)
1979-10-31 (46 years ago)
Launch vehicle
Unknown
Launch site
Plesetsk Missile And Space Complex (PKMTR)
Object type
Payload
Rocket body
Debris
Shape & HBR
Unknown shape, 0.1 m
Radar Cross Section
Small (<0.1 m²)

Expand to show TLE details & history
Last TLE update: 10 hours ago

TLE from 10 hours ago
0 METEOR 2-5 DEB
1 38280U 79095CA  25293.85468972  .00009477  00000-0  27945-2 0  9997
2 38280  81.1861 347.9346 0003011 347.0492  13.0619 14.43528072772921
Epoch: 2025-10-20T20:30Z
TLE epoch observation values (Epoch: 2025-10-20T20:30:45.191Z)
Latitude
-0.00007°
Longitude
10.69527°
Altitude
747.718 km
Speed
7.482 km/s
True Right ascension
23h 11m 44s
True Declination
0° 00' 00"
Sunlit
Object was in full shadow at epoch
Visualization orbit readout
Latitude
Unknown
Longitude
Unknown
Altitude
Unknown
Speed
Unknown
Apparent Right ascension
Unknown
Apparent Declination
Unknown
Sunlit
N/A
Visualization observer readout
Local Sidereal Time
01:19:37
Azimuth
Unknown
Elevation
Unknown
Doppler factor
Unknown
Orbital elements
Apogee altitude
746.142 km
Perigee altitude
741.853 km
Semi-major axis
7,122.135 km
Eccentricity
0.0003
Inclination
81.1861°
RAAN
347.9346°
Arg. of periapsis
347.0492°
True anomaly
13.0697°
Mean anomaly
13.0619°
Eccentric anomaly
13.0658°
Mean motion
3.611 °/min
Orbital period
99.7 mins
BSTAR
0.0027945
Loading maneuver chart data...
Computing Atmospheric mass density...
Loading historical data...
Loading historical data...
Loading historical data...
Loading historical data...
Loading historical data...
Loading historical data...
Loading historical data...

Documentation

Showing up to 5 results
|